STARLINK-37928

Last updated on Sun Aug 09 2026 00:02:04 GMT+0000 (Coordinated Universal Time)

1 69955U 26157N 26220.58335648 .00010500 00000+0 19667-3 0 9996 2 69955 53.1593 174.5142 0001452 87.2146 198.1897 15.49298216 6080
UTC large
Height (km)
Speed (km/s)
/
Latitude / Longitude
Inclination (degrees)
Orbital Period (minutes)
Azimuth
Elevation
Range (km)
Doppler Factor

Next 0 passes for location: London (51.5072 / 0.1276)

No passes found over London.
STARLINK-37928